This is the latest recevied weather packets stored in our database for station/object YB3RDW-13. If no packets are shown the sender has not sent any weather packets the latest 10 day(s).
| Time | Temp. | Humidity | Pressure | Rain* | Wind** | Luminosity | Snow |
|---|---|---|---|---|---|---|---|
| 1778032317 | 31.11° C | 74% | 1013 hPa | 0 mm | - | 434 W/m² | - |
| 1778032018 | 30.56° C | 76% | 1013 hPa | 0 mm | - | 397 W/m² | - |
| 1778031718 | 30.56° C | 76% | 1013 hPa | 0 mm | - | 430 W/m² | - |
| 1778031417 | 30.56° C | 76% | 1013 hPa | 0 mm | - | 191 W/m² | - |
| 1778031117 | 31.11° C | 76% | 1013 hPa | 0 mm | - | 421 W/m² | - |
| 1778030817 | 30.56° C | 79% | 1013 hPa | 0 mm | - | 384 W/m² | - |
| 1778030518 | 30° C | 81% | 1013 hPa | 0 mm | - | 384 W/m² | - |
| 1778030218 | 29.44° C | 81% | 1013 hPa | 0 mm | - | 272 W/m² | - |
| 1778029917 | 29.44° C | 81% | 1013 hPa | 0 mm | - | 306 W/m² | - |
| 1778029624 | 29.44° C | 82% | 1013 hPa | 0 mm | - | 333 W/m² | - |
| 1778029318 | 29.44° C | 83% | 1013 hPa | 0 mm | - | 285 W/m² | - |
| 1778029018 | 29.44° C | 84% | 1013 hPa | 0 mm | - | 279 W/m² | - |
| 1778028719 | 29.44° C | 83% | 1013 hPa | 0 mm | - | 269 W/m² | - |
| 1778028417 | 28.89° C | 83% | 1013 hPa | 0 mm | - | 256 W/m² | - |
| 1778028117 | 28.89° C | 84% | 1013 hPa | 0 mm | - | 246 W/m² | - |
| 1778027817 | 28.89° C | 85% | 1013 hPa | 0 mm | - | 236 W/m² | - |
| 1778027517 | 28.33° C | 87% | 1013 hPa | 0 mm | - | 226 W/m² | - |
| 1778027217 | 28.33° C | 87% | 1013 hPa | 0 mm | - | 210 W/m² | - |
| 1778026918 | 27.78° C | 89% | 1013 hPa | 0 mm | - | 196 W/m² | - |
| 1778026617 | 27.78° C | 89% | 1013 hPa | 0 mm | - | 183 W/m² | - |
| 1778026319 | 27.22° C | 90% | 1012 hPa | 0 mm | - | 173 W/m² | - |
| 1778026017 | 27.22° C | 90% | 1012 hPa | 0 mm | - | 162 W/m² | - |
| 1778025718 | 27.22° C | 91% | 1012 hPa | 0 mm | - | 143 W/m² | - |
| 1778025418 | 26.67° C | 91% | 1012 hPa | 0 mm | - | 129 W/m² | - |
| 1778025118 | 26.67° C | 91% | 1012 hPa | 0 mm | - | 114 W/m² | - |
* Rain latest hour (hover to see other rain measurements)
** Current wind speed in m/s (hover to see current wind gust speed)